LUCH 1 23426U 94082A 21060.04446734 .00000087 00000-0 00000-0 0 9996 2 23426 14.8221 10.1432 0004040 68.8042 291.2583 1.00217298 95862 SL-12 R/B(2) 1 23429U 94082D 21060.65581300 .00000073 00000-0 00000-0 0 9990 2 23429 14.6912 9.7423 0030910 79.9875 153.5123 1.00796042 96406 LUCH DEB 1 44582U 94082G 21059.56609786 .00000097 00000-0 00000-0 0 9996 2 44582 14.7178 9.6582 0022776 39.8839 142.1274 1.00687265 26764